Imperial, NE

9:53 PM MDT on March 26, 2017 (GMT -0600)
Imperial Municipal

Weather History for KIML - October, 2011

Change the Weather History Date:

Saturday, October 8, 2011

  Actual Average Record
Temperature  
Mean Temperature 53 °F 54 °F  
Max Temperature 63 °F 69 °F 88 °F (1921)
Min Temperature 42 °F 40 °F 20 °F (2000)
Degree Days  
Heating Degree Days 12 11  
Month to date heating degree days 17 77  
Cooling Degree Days 0 0  
Month to date cooling degree days 17 3  
Year to date cooling degree days 1096 960  
Growing Degree Days 4 (Base 50)    
Moisture  
Dew Point 50 °F    
Average Humidity 80    
Maximum Humidity 100    
Minimum Humidity 60    
Precipitation  
Precipitation 0.61 in 0.05 in 0.85 in (1919)
Sea Level Pressure  
Sea Level Pressure 29.87 in    
Wind  
Wind Speed 14 mph (ESE)    
Max Wind Speed 33 mph    
Max Gust Speed 43 mph    
Visibility 8 miles    
Events Rain , Thunderstorm    
T = Trace of Precipitation, MM = Missing Value Source: NWS Daily Summary

Daily Weather History Graph

Daily Weather History Graph

Search for Another Location

Airport or City:

Trip Planner

Search our weather history database for the weather conditions in past years. The results will help you decide how hot, cold, wet, or windy it might be!

Date:

Astronomy

Oct. 08, 2011 Rise Set
Actual Time 6:49 AM MDT 6:17 PM MDT
Civil Twilight 6:22 AM MDT 6:44 PM MDT
Nautical Twilight 5:50 AM MDT 7:16 PM MDT
Astronomical Twilight 5:19 AM MDT 7:48 PM MDT
Moon 4:29 PM MDT (10/8) 3:38 AM MDT (10/8)
Length of Visible Light 12h 22m
Length of Day
11h 27m
Waxing Gibbous, 90% of the Moon is Illuminated
Oct 8
Waxing Gibbous
Oct 11
Full
Oct 19
Last Quarter
Oct 26
New
Nov 2
First Quarter

Hourly Weather History & Observations

Time (MDT) Temp. Windchill Dew Point Humidity Pressure Visibility Wind Dir Wind Speed Gust Speed Precip Events Conditions
12:48 AM 50.0 °F - 44.6 °F 82% 29.86 in 10.0 mi North 23.0 mph 27.6 mph 0.01 in Rain , Thunderstorm Light Rain
12:53 AM 50.0 °F - 44.6 °F 82% 29.84 in 10.0 mi North 23.0 mph 29.9 mph N/A Rain Light Rain
1:53 AM 50.0 °F - 46.0 °F 86% 29.81 in 10.0 mi NE 15.0 mph - 0.00 in Rain Light Rain
2:45 AM 50.0 °F - 48.2 °F 94% 29.93 in 4.0 mi West 13.8 mph - 0.16 in Rain Rain
2:50 AM 48.2 °F - 46.4 °F 93% 29.91 in 2.5 mi WNW 13.8 mph - 0.22 in Rain Heavy Rain
2:53 AM 48.9 °F - 46.0 °F 90% 29.85 in 2.5 mi NW 16.1 mph - 0.23 in Rain Rain
3:02 AM 48.2 °F - 46.4 °F 93% 29.88 in 3.0 mi NNW 15.0 mph - 0.04 in Rain Heavy Rain
3:40 AM 50.0 °F - 48.2 °F 94% 29.88 in 4.0 mi NE 9.2 mph - 0.14 in Rain Rain
3:45 AM 51.8 °F - 50.0 °F 94% 29.89 in 4.0 mi NNE 5.8 mph - 0.16 in Rain Rain
3:53 AM 51.1 °F - 50.0 °F 96% 29.83 in 5.0 mi North 9.2 mph - 0.18 in Rain Rain
4:28 AM 51.8 °F - 50.0 °F 94% 29.88 in 4.0 mi SW 8.1 mph - 0.10 in Rain Light Rain
4:53 AM 52.0 °F - 52.0 °F 100% 29.80 in 7.0 mi ENE 17.3 mph 20.7 mph 0.13 in Rain Light Rain
5:00 AM 51.8 °F - 51.8 °F 100% 29.82 in 5.0 mi ENE 21.9 mph - 0.02 in Rain Light Rain
5:11 AM 53.6 °F - 51.8 °F 94% 29.82 in 9.0 mi ENE 18.4 mph - 0.02 in Rain Light Rain
5:51 AM 55.4 °F - 53.6 °F 94% 29.79 in 10.0 mi ENE 17.3 mph 20.7 mph 0.02 in   Overcast
5:53 AM 55.9 °F - 54.0 °F 93% 29.77 in 10.0 mi East 13.8 mph 20.7 mph 0.02 in   Overcast
6:53 AM 55.4 °F - 55.4 °F 100% 29.82 in 8.0 mi East 18.4 mph 21.9 mph N/A Rain Light Rain
7:30 AM 55.4 °F - 53.6 °F 94% 29.81 in 10.0 mi East 12.7 mph - 0.01 in   Mostly Cloudy
7:53 AM 55.9 °F - 54.0 °F 93% 29.80 in 10.0 mi ESE 11.5 mph - 0.01 in   Overcast
8:31 AM 55.4 °F - 53.6 °F 94% 29.82 in 10.0 mi East 13.8 mph 23.0 mph N/A   Scattered Clouds
8:45 AM 55.4 °F - 53.6 °F 94% 29.85 in 10.0 mi ESE 10.4 mph 19.6 mph N/A   Mostly Cloudy
8:53 AM 57.0 °F - 54.0 °F 89% 29.82 in 10.0 mi ESE 13.8 mph - N/A   Mostly Cloudy
9:45 AM 57.2 °F - 53.6 °F 88% 29.88 in 10.0 mi ESE 13.8 mph - N/A   Overcast
9:53 AM 57.2 °F - 53.6 °F 88% 29.88 in 10.0 mi SE 13.8 mph - N/A   Overcast
10:53 AM 57.0 °F - 55.0 °F 93% 29.84 in 10.0 mi ESE 19.6 mph 26.5 mph N/A   Overcast
11:37 AM 57.2 °F - 55.4 °F 94% 29.88 in 5.0 mi SE 20.7 mph 25.3 mph 0.01 in Rain Light Rain
12:05 PM 57.2 °F - 55.4 °F 94% 29.88 in 8.0 mi SE 18.4 mph 26.5 mph 0.00 in Rain Light Rain
12:53 PM 57.9 °F - 55.0 °F 90% 29.86 in 10.0 mi SE 20.7 mph 28.8 mph 0.00 in   Overcast
1:18 PM 60.8 °F - 53.6 °F 77% 29.86 in 10.0 mi SSE 21.9 mph 36.8 mph 0.01 in   Overcast
1:48 PM 60.8 °F - 53.6 °F 77% 29.85 in 10.0 mi SSE 29.9 mph 39.1 mph 0.01 in   Mostly Cloudy
1:53 PM 60.1 °F - 53.1 °F 78% 29.83 in 10.0 mi SE 25.3 mph 39.1 mph 0.01 in   Mostly Cloudy
2:03 PM 60.8 °F - 50.0 °F 68% 29.85 in 10.0 mi SSE 31.1 mph 42.6 mph N/A   Mostly Cloudy
2:53 PM 61.0 °F - 48.0 °F 62% 29.85 in 10.0 mi SSE 21.9 mph 31.1 mph N/A   Overcast
3:53 PM 62.1 °F - 48.9 °F 62% 29.86 in 10.0 mi SE 23.0 mph 33.4 mph N/A   Mostly Cloudy
4:53 PM 60.1 °F - 48.9 °F 67% 29.87 in 10.0 mi SE 20.7 mph 26.5 mph N/A   Overcast
5:53 PM 60.1 °F - 48.9 °F 67% 29.89 in 10.0 mi South 16.1 mph 23.0 mph N/A   Mostly Cloudy
6:06 PM 57.2 °F - 46.4 °F 67% 29.92 in 10.0 mi SSW 12.7 mph - N/A   Scattered Clouds
6:53 PM 53.6 °F - 44.6 °F 72% 29.95 in 10.0 mi SSW 9.2 mph - N/A   Clear
7:53 PM 50.0 °F - 44.1 °F 80% 29.97 in 10.0 mi South 8.1 mph - N/A   Clear
8:53 PM 46.9 °F - 42.1 °F 83% 30.01 in 10.0 mi SSE 5.8 mph - N/A   Clear
9:53 PM 46.0 °F 41.9 °F 42.1 °F 86% 30.03 in 10.0 mi SE 8.1 mph - N/A   Clear
10:53 PM 45.0 °F 40.6 °F 41.0 °F 86% 30.04 in 10.0 mi SSE 8.1 mph - N/A   Clear
11:53 PM 43.0 °F 39.5 °F 41.0 °F 93% 30.04 in 10.0 mi ESE 5.8 mph - N/A   Clear